Погода в Поросе

Греция     37°30′12″N   23°27′22″E
темп.,
°C
ветер,
м/с
пор.,
м/с
влажн.,
%
обл.,
%
осадки,
мм/ч
давл.,
гПа
погр.,
м
24 января, пн
пн2423:00+5ссв32395 0.0 10231444
02:00+5с3339100 0.0 10221445
05:00+5ссв10106571 0.2 10211113
08:00+5с12126098 0.3 10211575
11:00+5ссз13147154 0.3 10211320
14:00+5ссв131480100 3.1 10201713
17:00+4ссв131495100 7.3 10201333
20:00+4ссв141889100 13.6 10221747
25 января, вт
вт2523:00+6ссв181970100 2.8 10232057
02:00+5ссв161870100 3.5 10241906
05:00+4ссв14177293 0.8 10251698
08:00+5ссв14166736 1.0 10261734
11:00+5с14167088 0.3 10271853
14:00+5с121368100 0.7 10261865
17:00+5с11126342 0.1 10251547
20:00+4с911515 0.1 10261267
26 января, ср
ср2623:00+4ссз89495 0.0 10261323
02:00+5ссз810523 0.0 10261351
05:00+5с910533 0.0 10251315
08:00+5с79510 0.0 10251115
11:00+5ссз56460 0.0 10261077
14:00+6сз44390 0.0 1025837
17:00+6ссз44410 0.0 1024781
20:00+6сз34440 0.0 1025698
27 января, чт
чт2723:00+6ссз33470 0.0 1026623
02:00+6сз33510 0.0 1026509
05:00+6сз44540 0.0 1025526
08:00+7ссз44571 0.0 1026676
11:00+8с33552 0.0 1027816
14:00+8с33532 0.0 1026855
17:00+8ссз11501 0.0 1026595
20:00+8зсз21510 0.0 1026564
28 января, пт
пт2823:00+7з32600 0.0 1026390
02:00+7зсз22595 0.0 1025385
05:00+7зсз21605 0.0 1024400
08:00+7з11605 0.0 1025333
11:00+9юз11541 0.0 1024381
14:00+10ююз12495 0.0 1022513
17:00+10ююз22534 0.0 1022405
20:00+9зюз11555 0.0 1022323